N8DNY-13 Weather Reports


Display with metric or nautical units.
time (UTC)temp
F
wind
direction
speed
MPH
gust
MPH
rain 1hr
in
rain 24hr
in
rain mn
in
humidity
%
barometer
mb
20260505172440 60 275 0.0 1.0 0.00 0.01 0.01 52 1011.3
20260505170933 61 282 0.0 1.0 0.00 0.01 0.01 53 1011.7
20260505165450 61 286 0.0 1.0 0.00 0.01 0.01 52 1011.8
20260505163920 61 271 0.0 1.0 0.00 0.01 0.01 52 1011.7
20260505162411 60 276 0.0 1.0 0.00 0.01 0.01 55 1011.9
20260505160910 61 279 0.0 1.0 0.00 0.01 0.01 61 1011.9
20260505152401 62 273 0.0 1.0 0.00 0.01 0.01 66 1011.5
20260505150900 62 297 0.0 2.0 0.00 0.01 0.01 71 1011.6
20260505123820 61 281 0.0 0.0 0.00 0.01 0.01 78 1009.2
20260505122320 61 285 1.0 2.0 0.00 0.01 0.01 78 1009.3
20260505120815 60 261 1.0 3.0 0.00 0.01 0.01 80 1009.1
20260505115314 59 278 0.0 1.0 0.00 0.01 0.01 80 1009.2
20260505113810 58 274 0.0 1.0 0.00 0.01 0.01 82 1008.8
20260505112329 58 261 0.0 1.0 0.00 0.01 0.01 83 1008.5
20260505110806 58 289 0.0 1.0 0.00 0.01 0.01 82 1008.1
20260505100800 58 271 0.0 0.0 0.00 0.01 0.01 84 1007.4
20260505095230 57 269 0.0 0.0 0.00 0.01 0.01 85 1007.0
20260505093723 57 272 0.0 1.0 0.00 0.01 0.01 86 1007.2
20260505092220 58 281 0.0 0.0 0.00 0.01 0.01 86 1007.0
20260505090710 58 268 0.0 1.0 0.00 0.01 0.01 87 1006.7
20260505085221 59 288 0.0 0.0 0.00 0.01 0.01 86 1006.8
20260505083659 59 264 0.0 0.0 0.00 0.00 0.00 85 1006.8
20260505082156 59 284 0.0 1.0 0.00 0.00 0.00 84 1006.8
20260505080650 60 283 0.0 1.0 0.00 0.00 0.00 81 1005.8
20260505075140 61 283 0.0 1.0 0.00 0.00 0.00 77 1006.2
20260505073634 63 274 0.0 1.0 0.00 0.00 0.00 69 1006.0
20260505072150 63 274 1.0 2.0 0.00 0.00 0.00 69 1005.8
20260505070630 63 211 1.0 2.0 0.00 0.00 0.00 69 1005.6
20260505065120 62 270 0.0 1.0 0.00 0.00 0.00 70 1005.7
20260505063614 63 268 2.0 2.0 0.00 0.00 0.00 69 1005.8
20260505062110 62 271 0.0 0.0 0.00 0.00 0.00 70 1006.5
20260505060609 62 270 0.0 1.0 0.00 0.00 0.00 70 1006.6
20260505055100 63 275 0.0 1.0 0.00 0.00 0.00 69 1007.0
20260505053600 64 275 0.0 2.0 0.00 0.00 0.00 68 1007.0
20260505052050 64 288 1.0 2.0 0.00 0.00 0.00 68 1007.2
20260505050542 65 286 0.0 1.0 0.00 0.00 0.00 67 1007.1
20260505040540 67 264 2.0 4.0 0.00 0.00 0.00 60 1006.0
20260505035030 67 225 2.0 3.0 0.00 0.00 0.00 60 1006.1
20260505033502 67 271 1.0 3.0 0.00 0.00 0.00 60 1006.1
20260505032002 68 267 1.0 2.0 0.00 0.00 0.00 59 1006.3
20260505030501 68 279 0.0 1.0 0.00 0.00 0.00 59 1006.6
20260505025000 68 282 0.0 1.0 0.00 0.00 0.00 58 1006.7
20260505023450 68 267 0.0 1.0 0.00 0.00 0.00 58 1006.6
20260505021950 68 284 1.0 3.0 0.00 0.00 0.00 57 1006.5
20260505020446 69 263 1.0 2.0 0.00 0.00 0.00 55 1006.5
20260505014940 69 280 0.0 1.0 0.00 0.00 0.00 54 1006.4
20260505013435 70 268 1.0 2.0 0.00 0.00 0.00 53 1006.3
20260505011945 71 282 2.0 3.0 0.00 0.00 0.00 52 1006.4
20260505010420 71 249 0.0 2.0 0.00 0.00 0.00 50 1006.2
20260505004910 72 141 3.0 5.0 0.00 0.00 0.00 47 1005.9
20260505003404 72 188 4.0 6.0 0.00 0.00 0.00 46 1005.9
20260505001902 73 276 0.0 1.0 0.00 0.00 0.00 45 1005.6
20260505000401 74 253 0.0 1.0 0.00 0.00 0.00 45 1005.3
20260504234920 74 274 4.0 6.0 0.00 0.00 0.00 44 1005.3
20260504233354 74 278 1.0 3.0 0.00 0.00 0.00 45 1005.0
20260504231850 75 233 3.0 4.0 0.00 0.00 0.00 45 1005.0
20260504230340 75 253 5.0 8.0 0.00 0.00 0.00 44 1004.7
20260504224834 75 244 7.0 12.0 0.00 0.00 0.00 45 1004.7
20260504223350 76 257 3.0 4.0 0.00 0.00 0.00 44 1004.9
20260504221820 77 271 2.0 3.0 0.00 0.00 0.00 43 1004.8
20260504220333 78 264 1.0 2.0 0.00 0.00 0.00 42 1005.1
20260504214810 77 265 3.0 4.0 0.00 0.00 0.00 44 1005.0
20260504213320 79 243 3.0 4.0 0.00 0.00 0.00 42 1005.2
20260504211752 78 160 9.0 11.0 0.00 0.00 0.00 43 1005.6
20260504210250 79 228 2.0 2.0 0.00 0.00 0.00 44 1005.5
20260504204740 78 284 1.0 2.0 0.00 0.00 0.00 44 1005.9
20260504203231 78 290 2.0 3.0 0.00 0.00 0.00 46 1006.0
20260504201730 76 266 3.0 4.0 0.00 0.00 0.00 46 1006.1
20260504200220 76 248 1.0 3.0 0.00 0.00 0.00 47 1006.5
20260504194730 79 271 1.0 2.0 0.00 0.00 0.00 44 1006.6
20260504193210 77 311 4.0 6.0 0.00 0.00 0.00 42 1006.8
20260504191706 78 10 5.0 6.0 0.00 0.00 0.00 39 1007.1
20260504190200 76 220 4.0 5.0 0.00 0.00 0.00 39 1007.5
20260504184651 77 255 3.0 5.0 0.00 0.00 0.00 37 1007.5
20260504183145 78 294 1.0 2.0 0.00 0.00 0.00 40 1007.5
20260504181644 76 235 2.0 2.0 0.00 0.00 0.00 40 1008.0
20260504180141 76 250 3.0 6.0 0.00 0.00 0.00 40 1008.1
20260504174640 77 313 0.0 1.0 0.00 0.00 0.00 44 1008.3